Regional Weather Roundup
Issued by NWS

Home | Current Version | Previous Version | Text Only | Print | Product List | Glossary On
Versions: 1 2 3 4 5 6 7 8 9 10 11 12 13 14 15 16 17 18 19 20 21 22 23 24 25 26 27 28 29 30 31 32 33 34 35 36 37 38 39 40 41 42 43 44 45 46 47 48 49 50
000
ASUS43 KBIS 050910
RWRND

NORTH DAKOTA REGIONAL WEATHER ROUNDUP
NATIONAL WEATHER SERVICE BISMARCK ND
400 AM CDT THU MAY 05 2016

NOTE: "FAIR" INDICATES FEW OR NO CLOUDS BELOW 12,000 FEET WITH NO
SIGNIFICANT WEATHER AND/OR OBSTRUCTIONS TO VISIBILITY.


NDZ001>003-009>011-017-051000-
NORTHWEST NORTH DAKOTA

CITY           SKY/WX    TMP DP  RH WIND       PRES   REMARKS
WILLISTON      CLEAR     47  41  80 CALM      29.85F
MINOT          CLEAR     66  41  40 SW16      29.84F
MINOT AFB      CLEAR     61  43  51 SW13      29.82F
$$

NDZ018>021-031>035-040>046-051000-
SOUTHWEST NORTH DAKOTA

CITY           SKY/WX    TMP DP  RH WIND       PRES   REMARKS
BISMARCK       CLEAR     59  45  59 SW7       29.92F
DICKINSON      CLEAR     54  41  61 S13       29.91F
GARRISON         N/A     51  42  71 SW5       29.89F
HETTINGER ARPT CLEAR     55  41  59 SE6       29.97F
$$

NDZ004>008-012>016-024-026-027-054-051000-
NORTHEAST NORTH DAKOTA

CITY           SKY/WX    TMP DP  RH WIND       PRES   REMARKS
GRAND FORKS    PTCLDY    53  32  44 S10       29.83F
GRND FRKS AFB  CLEAR     57  32  38 SW10      29.83F
DEVILS LAKE    CLEAR     59  44  57 SW13      29.86F
$$

NDZ022-023-025-028>030-036>039-047>053-051000-
SOUTHEAST NORTH DAKOTA

CITY           SKY/WX    TMP DP  RH WIND       PRES   REMARKS
FARGO          PTCLDY    51  31  46 S9        29.91S
JAMESTOWN      CLEAR     50  41  71 SW6       29.90F
$$





USA.gov is the U.S. government's official web portal to all federal, state and local government web resources and services.